Time,TemperatureF,DewpointF,PressureIn,WindDirection,WindDirectionDegrees,WindSpeedMPH,WindSpeedGustMPH,Humidity,HourlyPrecipIn,Conditions,Clouds,dailyrainin,SoftwareType,DateUTC
2013-06-11 00:02:00,81.0,76.8,29.09,SE,138,3.5,5.8,87,0.00,,FEW,0.00,WeatherDisplay:10.37,2013-06-11 05:02:00,
2013-06-11 00:07:00,81.0,76.8,29.09,ESE,111,3.5,5.8,87,0.00,,FEW,0.00,WeatherDisplay:10.37,2013-06-11 05:07:00,
2013-06-11 00:12:00,81.0,76.4,29.09,East,98,1.5,4.6,86,0.00,,FEW,0.00,WeatherDisplay:10.37,2013-06-11 05:12:00,
2013-06-11 00:17:00,81.1,76.2,29.09,SE,128,4.4,8.1,85,0.00,,FEW,0.00,WeatherDisplay:10.37,2013-06-11 05:17:00,
2013-06-11 00:22:00,81.3,76.0,29.09,SSE,148,3.4,5.3,84,0.00,,FEW,0.00,WeatherDisplay:10.37,2013-06-11 05:22:00,
2013-06-11 00:27:00,81.5,76.2,29.09,ESE,122,6.1,6.1,84,0.00,,FEW,0.00,WeatherDisplay:10.37,2013-06-11 05:27:00,
2013-06-11 00:32:00,81.6,75.9,29.09,SE,134,8.5,15.0,83,0.00,,FEW,0.00,WeatherDisplay:10.37,2013-06-11 05:32:00,
2013-06-11 00:37:00,81.6,75.6,29.09,SSE,149,8.8,9.2,82,0.00,,FEW,0.00,WeatherDisplay:10.37,2013-06-11 05:37:00,
2013-06-11 00:42:00,81.6,75.6,29.09,SE,135,5.7,10.4,82,0.00,,FEW,0.00,WeatherDisplay:10.37,2013-06-11 05:42:00,
2013-06-11 00:47:00,81.5,75.5,29.09,East,85,2.8,9.2,82,0.00,,FEW,0.00,WeatherDisplay:10.37,2013-06-11 05:47:00,
2013-06-11 00:52:00,81.5,75.1,29.09,ESE,107,7.5,13.8,81,0.00,,FEW,0.00,WeatherDisplay:10.37,2013-06-11 05:52:00,
2013-06-11 00:57:00,81.5,75.1,29.09,ESE,114,7.0,11.5,81,0.00,,FEW,0.00,WeatherDisplay:10.37,2013-06-11 05:57:00,
2013-06-11 01:02:00,81.5,75.1,29.10,SE,133,6.6,23.0,81,0.00,,FEW,0.00,WeatherDisplay:10.37,2013-06-11 06:02:00,
2013-06-11 01:07:00,81.5,75.1,29.09,SE,138,8.3,12.7,81,0.00,,FEW,0.00,WeatherDisplay:10.37,2013-06-11 06:07:00,
2013-06-11 01:12:00,81.5,75.5,29.09,ESE,107,5.9,7.4,82,0.00,,FEW,0.00,WeatherDisplay:10.37,2013-06-11 06:12:00,
2013-06-11 01:17:00,81.4,75.4,29.09,SSE,154,7.0,17.3,82,0.00,,FEW,0.00,WeatherDisplay:10.37,2013-06-11 06:17:00,
2013-06-11 01:22:00,81.3,75.3,29.09,SE,140,4.8,8.1,82,0.00,,FEW,0.00,WeatherDisplay:10.37,2013-06-11 06:22:00,
2013-06-11 01:27:00,81.2,75.5,29.09,SSE,167,2.9,5.8,83,0.00,,FEW,0.00,WeatherDisplay:10.37,2013-06-11 06:27:00,
2013-06-11 01:32:00,81.1,75.4,29.09,SSE,161,4.4,13.8,83,0.00,,FEW,0.00,WeatherDisplay:10.37,2013-06-11 06:32:00,
2013-06-11 01:37:00,81.0,75.0,29.09,SSE,161,5.0,6.9,82,0.00,,FEW,0.00,WeatherDisplay:10.37,2013-06-11 06:37:00,
2013-06-11 01:42:00,81.0,75.3,29.09,ESE,120,5.1,8.1,83,0.00,,FEW,0.00,WeatherDisplay:10.37,2013-06-11 06:42:00,
2013-06-11 01:47:00,81.0,75.3,29.09,SE,132,6.8,7.4,83,0.00,,FEW,0.00,WeatherDisplay:10.37,2013-06-11 06:47:00,
2013-06-11 01:52:00,81.0,75.3,29.09,SSE,155,5.1,8.1,83,0.00,,FEW,0.00,WeatherDisplay:10.37,2013-06-11 06:52:00,
2013-06-11 01:57:00,81.1,75.8,29.09,SSW,192,3.9,8.1,84,0.00,,FEW,0.00,WeatherDisplay:10.37,2013-06-11 06:57:00,
2013-06-11 02:02:00,81.1,75.8,29.09,SE,135,4.9,8.1,84,0.00,,FEW,0.00,WeatherDisplay:10.37,2013-06-11 07:02:00,
2013-06-11 02:07:00,81.1,75.8,29.09,ESE,122,6.5,9.2,84,0.00,,FEW,0.00,WeatherDisplay:10.37,2013-06-11 07:07:00,
2013-06-11 02:12:00,81.2,75.9,29.09,SE,126,4.0,9.2,84,0.00,,FEW,0.00,WeatherDisplay:10.37,2013-06-11 07:12:00,
2013-06-11 02:17:00,81.2,75.9,29.09,SSE,151,6.3,11.5,84,0.00,,FEW,0.00,WeatherDisplay:10.37,2013-06-11 07:17:00,
2013-06-11 02:22:00,81.3,76.0,29.09,ESE,119,4.8,6.9,84,0.00,,FEW,0.00,WeatherDisplay:10.37,2013-06-11 07:22:00,
2013-06-11 02:27:00,81.2,75.9,29.09,East,99,4.3,5.8,84,0.00,,FEW,0.00,WeatherDisplay:10.37,2013-06-11 07:27:00,
2013-06-11 02:32:00,81.2,76.3,29.09,ESE,103,8.7,10.5,85,0.00,,FEW,0.00,WeatherDisplay:10.37,2013-06-11 07:32:00,
2013-06-11 02:37:00,81.2,75.9,29.09,ESE,117,4.1,6.9,84,0.00,,FEW,0.00,WeatherDisplay:10.37,2013-06-11 07:37:00,
2013-06-11 02:42:00,81.2,75.9,29.09,SE,138,2.5,6.9,84,0.00,,FEW,0.00,WeatherDisplay:10.37,2013-06-11 07:42:00,
2013-06-11 02:47:00,81.1,75.8,29.08,SE,143,3.0,4.6,84,0.00,,FEW,0.00,WeatherDisplay:10.37,2013-06-11 07:47:00,
2013-06-11 02:52:00,81.1,76.2,29.08,SSE,156,4.9,6.9,85,0.00,,FEW,0.00,WeatherDisplay:10.37,2013-06-11 07:52:00,
2013-06-11 02:57:00,81.1,76.2,29.09,SE,140,3.0,8.1,85,0.00,,FEW,0.00,WeatherDisplay:10.37,2013-06-11 07:57:00,
2013-06-11 03:02:00,80.7,76.5,29.08,SSE,150,1.5,3.5,87,0.00,,FEW,0.00,WeatherDisplay:10.37,2013-06-11 08:02:00,
2013-06-11 03:07:00,80.5,76.6,29.08,SSE,164,2.3,5.8,88,0.00,,FEW,0.00,WeatherDisplay:10.37,2013-06-11 08:07:00,
2013-06-11 03:12:00,80.3,76.1,29.08,SE,145,3.5,5.8,87,0.00,,FEW,0.00,WeatherDisplay:10.37,2013-06-11 08:12:00,
2013-06-11 03:17:00,80.4,76.2,29.08,SSE,156,4.5,5.8,87,0.00,,FEW,0.00,WeatherDisplay:10.37,2013-06-11 08:17:00,
2013-06-11 03:22:00,80.5,75.9,29.08,SSW,200,5.7,6.9,86,0.00,,FEW,0.00,WeatherDisplay:10.37,2013-06-11 08:22:00,
2013-06-11 03:27:00,80.5,75.9,29.08,SW,221,6.4,6.4,86,0.00,,FEW,0.00,WeatherDisplay:10.37,2013-06-11 08:27:00,
2013-06-11 03:32:00,80.5,75.2,29.08,South,178,4.1,9.2,84,0.00,,FEW,0.00,WeatherDisplay:10.37,2013-06-11 08:32:00,
2013-06-11 03:37:00,80.6,75.0,29.08,South,182,1.1,5.8,83,0.00,,FEW,0.00,WeatherDisplay:10.37,2013-06-11 08:37:00,
2013-06-11 03:42:00,80.6,75.0,29.08,South,179,1.6,3.5,83,0.00,,FEW,0.00,WeatherDisplay:10.37,2013-06-11 08:42:00,
2013-06-11 03:47:00,80.6,75.3,29.08,South,174,1.9,6.3,84,0.00,,FEW,0.00,WeatherDisplay:10.37,2013-06-11 08:47:00,
2013-06-11 03:52:00,80.6,75.3,29.08,South,178,5.3,7.4,84,0.00,,FEW,0.00,WeatherDisplay:10.37,2013-06-11 08:52:00,
2013-06-11 03:57:00,80.7,75.4,29.08,SSE,150,4.1,5.8,84,0.00,,FEW,0.00,WeatherDisplay:10.37,2013-06-11 08:57:00,
2013-06-11 04:02:00,80.8,75.5,29.08,SSW,210,4.3,5.8,84,0.00,,FEW,0.00,WeatherDisplay:10.37,2013-06-11 09:02:00,
2013-06-11 04:07:00,80.8,75.9,29.08,SE,143,2.9,5.8,85,0.00,,FEW,0.00,WeatherDisplay:10.37,2013-06-11 09:07:00,
2013-06-11 04:12:00,80.7,75.8,29.07,SSE,166,5.4,5.8,85,0.00,,FEW,0.00,WeatherDisplay:10.37,2013-06-11 09:12:00,
2013-06-11 04:17:00,80.8,75.5,29.07,SSE,158,1.4,6.9,84,0.00,,FEW,0.00,WeatherDisplay:10.37,2013-06-11 09:17:00,
2013-06-11 04:22:00,80.7,75.4,29.07,SSE,163,3.1,4.6,84,0.00,,FEW,0.00,WeatherDisplay:10.37,2013-06-11 09:22:00,
2013-06-11 04:27:00,80.7,75.4,29.07,SSE,164,2.4,3.5,84,0.00,,FEW,0.00,WeatherDisplay:10.37,2013-06-11 09:27:00,
2013-06-11 04:32:00,80.7,75.4,29.07,South,170,2.2,4.6,84,0.00,,FEW,0.00,WeatherDisplay:10.37,2013-06-11 09:32:00,
2013-06-11 04:37:00,80.7,75.4,29.07,SSE,153,2.7,5.8,84,0.00,,FEW,0.00,WeatherDisplay:10.37,2013-06-11 09:37:00,
2013-06-11 04:42:00,80.7,75.4,29.07,South,183,4.4,5.8,84,0.00,,FEW,0.00,WeatherDisplay:10.37,2013-06-11 09:42:00,
2013-06-11 04:47:00,80.8,75.5,29.08,SE,144,3.7,5.8,84,0.00,,FEW,0.00,WeatherDisplay:10.37,2013-06-11 09:47:00,
2013-06-11 04:52:00,80.9,75.6,29.08,South,177,5.3,5.8,84,0.00,,FEW,0.00,WeatherDisplay:10.37,2013-06-11 09:52:00,
2013-06-11 04:57:00,80.9,75.6,29.08,SE,144,3.9,5.8,84,0.00,,FEW,0.00,WeatherDisplay:10.37,2013-06-11 09:57:00,
2013-06-11 05:03:00,81.0,75.7,29.08,SSE,156,2.7,5.8,84,0.00,,FEW,0.00,WeatherDisplay:10.37,2013-06-11 10:03:00,
2013-06-11 05:08:00,80.9,75.6,29.08,SSE,159,1.5,3.2,84,0.00,,FEW,0.00,WeatherDisplay:10.37,2013-06-11 10:08:00,
2013-06-11 05:13:00,80.8,75.5,29.08,South,173,2.2,3.5,84,0.00,,FEW,0.00,WeatherDisplay:10.37,2013-06-11 10:13:00,
2013-06-11 05:18:00,80.8,75.9,29.08,South,173,3.4,4.6,85,0.00,,FEW,0.00,WeatherDisplay:10.37,2013-06-11 10:18:00,
2013-06-11 05:23:00,80.8,75.9,29.08,South,169,1.7,5.8,85,0.00,,FEW,0.00,WeatherDisplay:10.37,2013-06-11 10:23:00,
2013-06-11 05:28:00,80.9,76.0,29.08,SSW,203,3.7,3.7,85,0.00,,FEW,0.00,WeatherDisplay:10.37,2013-06-11 10:28:00,
2013-06-11 05:33:00,80.9,76.0,29.08,South,182,2.4,5.8,85,0.00,,FEW,0.00,WeatherDisplay:10.37,2013-06-11 10:33:00,
2013-06-11 05:38:00,81.0,76.1,29.08,SE,132,0.8,3.5,85,0.00,,FEW,0.00,WeatherDisplay:10.37,2013-06-11 10:38:00,
2013-06-11 05:43:00,81.0,76.1,29.08,SE,125,0.9,3.5,85,0.00,,FEW,0.00,WeatherDisplay:10.37,2013-06-11 10:43:00,
2013-06-11 05:48:00,80.9,76.0,29.09,SE,127,1.6,4.2,85,0.00,,FEW,0.00,WeatherDisplay:10.37,2013-06-11 10:48:00,
2013-06-11 05:53:00,80.9,76.3,29.09,SSE,156,2.4,2.4,86,0.00,,FEW,0.00,WeatherDisplay:10.37,2013-06-11 10:53:00,
2013-06-11 05:58:00,80.8,75.9,29.09,South,177,1.7,5.8,85,0.00,,FEW,0.00,WeatherDisplay:10.37,2013-06-11 10:58:00,
2013-06-11 06:03:00,80.8,76.2,29.09,South,182,0.9,5.8,86,0.00,,FEW,0.00,WeatherDisplay:10.37,2013-06-11 11:03:00,
2013-06-11 06:08:00,80.8,76.2,29.09,SSE,159,1.6,4.6,86,0.00,,FEW,0.00,WeatherDisplay:10.37,2013-06-11 11:08:00,
2013-06-11 06:13:00,80.8,76.2,29.09,SSW,194,1.4,5.8,86,0.00,,FEW,0.00,WeatherDisplay:10.37,2013-06-11 11:13:00,
2013-06-11 06:18:00,80.7,76.1,29.09,SE,132,3.1,4.6,86,0.00,,FEW,0.00,WeatherDisplay:10.37,2013-06-11 11:18:00,
2013-06-11 06:23:00,80.7,76.1,29.09,SW,217,0.2,2.3,86,0.00,,FEW,0.00,WeatherDisplay:10.37,2013-06-11 11:23:00,
2013-06-11 06:28:00,80.6,76.0,29.09,South,175,0.0,0.0,86,0.00,,FEW,0.00,WeatherDisplay:10.37,2013-06-11 11:28:00,
2013-06-11 06:33:00,80.6,76.4,29.10,SE,130,1.7,5.8,87,0.00,,FEW,0.00,WeatherDisplay:10.37,2013-06-11 11:33:00,
2013-06-11 06:38:00,80.6,76.4,29.10,SE,139,0.0,2.3,87,0.00,,FEW,0.00,WeatherDisplay:10.37,2013-06-11 11:38:00,
2013-06-11 06:43:00,80.6,76.7,29.10,SSW,201,0.0,1.1,88,0.00,,FEW,0.00,WeatherDisplay:10.37,2013-06-11 11:43:00,
2013-06-11 06:48:00,80.5,76.6,29.10,South,180,0.0,1.1,88,0.00,,FEW,0.00,WeatherDisplay:10.37,2013-06-11 11:48:00,
2013-06-11 06:53:00,80.6,76.7,29.10,SSE,161,0.5,3.5,88,0.00,,FEW,0.00,WeatherDisplay:10.37,2013-06-11 11:53:00,
2013-06-11 06:58:00,80.7,77.2,29.10,South,179,0.6,0.0,89,0.00,,FEW,0.00,WeatherDisplay:10.37,2013-06-11 11:58:00,
2013-06-11 07:03:00,80.8,77.3,29.10,SSE,152,3.8,4.6,89,0.00,,FEW,0.00,WeatherDisplay:10.37,2013-06-11 12:03:00,
2013-06-11 07:08:00,81.0,77.4,29.10,South,184,0.8,1.1,89,0.00,,FEW,0.00,WeatherDisplay:10.37,2013-06-11 12:08:00,
2013-06-11 07:13:00,81.2,77.6,29.10,ESE,107,1.5,3.2,89,0.00,,FEW,0.00,WeatherDisplay:10.37,2013-06-11 12:13:00,
2013-06-11 07:18:00,81.4,77.5,29.11,South,185,1.0,3.5,88,0.00,,FEW,0.00,WeatherDisplay:10.37,2013-06-11 12:18:00,
2013-06-11 07:23:00,81.7,77.8,29.11,SE,140,2.0,4.6,88,0.00,,FEW,0.00,WeatherDisplay:10.37,2013-06-11 12:23:00,
2013-06-11 07:28:00,82.0,78.1,29.10,SSE,167,3.0,4.6,88,0.00,,FEW,0.00,WeatherDisplay:10.37,2013-06-11 12:28:00,
2013-06-11 07:33:00,82.2,78.3,29.11,ESE,109,1.3,2.3,88,0.00,,FEW,0.00,WeatherDisplay:10.37,2013-06-11 12:33:00,
2013-06-11 07:35:00,87.2,78.7,29.11,SE,146,7.0,12.0,76,0.00,CLR,FEW,0.00,WeatherDisplay:10.37,2013-06-11 12:35:00,
2013-06-11 07:38:00,82.3,78.0,29.11,SE,139,4.5,5.8,87,0.00,,FEW,0.00,WeatherDisplay:10.37,2013-06-11 12:38:00,
2013-06-11 07:43:00,82.4,77.8,29.11,SSE,165,2.8,5.8,86,0.00,,FEW,0.00,WeatherDisplay:10.37,2013-06-11 12:43:00,
2013-06-11 07:45:00,87.7,79.2,29.10,SE,133,5.0,7.0,76,0.00,CLR,FEW,0.00,WeatherDisplay:10.37,2013-06-11 12:45:00,
2013-06-11 07:48:00,82.6,78.0,29.11,ESE,121,3.2,5.8,86,0.00,,FEW,0.00,WeatherDisplay:10.37,2013-06-11 12:48:00,
2013-06-11 07:53:00,83.0,78.4,29.11,South,179,1.4,4.2,86,0.00,,FEW,0.00,WeatherDisplay:10.37,2013-06-11 12:53:00,
2013-06-11 07:58:00,83.3,78.3,29.11,SE,143,6.8,6.9,85,0.00,,FEW,0.00,WeatherDisplay:10.37,2013-06-11 12:58:00,
2013-06-11 08:03:00,83.6,78.6,29.11,ESE,119,6.3,8.1,85,0.00,,FEW,0.00,WeatherDisplay:10.37,2013-06-11 13:03:00,
2013-06-11 08:08:00,83.7,78.3,29.11,ESE,123,3.7,6.9,84,0.00,,FEW,0.00,WeatherDisplay:10.37,2013-06-11 13:08:00,
2013-06-11 08:13:00,83.8,78.4,29.11,South,172,3.2,5.8,84,0.00,,FEW,0.00,WeatherDisplay:10.37,2013-06-11 13:13:00,
2013-06-11 08:18:00,83.9,78.5,29.12,South,173,3.4,8.1,84,0.00,,FEW,0.00,WeatherDisplay:10.37,2013-06-11 13:18:00,
2013-06-11 08:23:00,83.6,77.9,29.12,SSE,149,5.1,6.9,83,0.00,,FEW,0.00,WeatherDisplay:10.37,2013-06-11 13:23:00,
2013-06-11 08:28:00,83.3,78.0,29.12,SSE,164,4.3,5.8,84,0.00,,FEW,0.00,WeatherDisplay:10.37,2013-06-11 13:28:00,
2013-06-11 08:33:00,83.2,77.9,29.12,South,187,1.7,4.6,84,0.00,,FEW,0.00,WeatherDisplay:10.37,2013-06-11 13:33:00,
2013-06-11 08:38:00,83.0,78.0,29.12,SSE,154,1.8,2.3,85,0.00,,FEW,0.00,WeatherDisplay:10.37,2013-06-11 13:38:00,
2013-06-11 08:43:00,82.9,77.9,29.13,South,188,2.1,4.6,85,0.00,,FEW,0.00,WeatherDisplay:10.37,2013-06-11 13:43:00,
2013-06-11 08:48:00,82.9,77.9,29.13,SSE,152,2.9,4.6,85,0.00,,FEW,0.00,WeatherDisplay:10.37,2013-06-11 13:48:00,
2013-06-11 08:53:00,82.9,77.9,29.13,SSE,166,1.4,4.6,85,0.00,,FEW,0.00,WeatherDisplay:10.37,2013-06-11 13:53:00,
2013-06-11 08:58:00,83.0,78.0,29.13,SE,140,3.6,5.8,85,0.00,,FEW,0.00,WeatherDisplay:10.37,2013-06-11 13:58:00,
2013-06-11 09:03:00,83.2,78.2,29.13,SSE,164,1.1,5.8,85,0.00,,FEW,0.00,WeatherDisplay:10.37,2013-06-11 14:03:00,
2013-06-11 09:08:00,83.5,78.9,29.13,SSW,203,0.7,1.1,86,0.00,,FEW,0.00,WeatherDisplay:10.37,2013-06-11 14:08:00,
2013-06-11 09:13:00,83.8,78.8,29.13,SSW,207,2.8,4.6,85,0.00,,FEW,0.00,WeatherDisplay:10.37,2013-06-11 14:13:00,
2013-06-11 09:18:00,84.3,78.9,29.13,SSW,206,5.6,7.4,84,0.00,,FEW,0.00,WeatherDisplay:10.37,2013-06-11 14:18:00,
2013-06-11 09:23:00,84.4,78.7,29.13,SE,144,3.7,8.1,83,0.00,,FEW,0.00,WeatherDisplay:10.37,2013-06-11 14:23:00,
2013-06-11 09:28:00,84.2,78.5,29.13,SSW,192,3.2,5.8,83,0.00,,FEW,0.00,WeatherDisplay:10.37,2013-06-11 14:28:00,
2013-06-11 09:33:00,84.3,78.6,29.13,South,174,4.5,6.9,83,0.00,,FEW,0.00,WeatherDisplay:10.37,2013-06-11 14:33:00,
2013-06-11 09:38:00,84.5,78.4,29.13,SSE,152,5.1,8.1,82,0.00,,FEW,0.00,WeatherDisplay:10.37,2013-06-11 14:38:00,
2013-06-11 09:43:00,84.6,78.9,29.14,NNW,335,9.1,9.1,83,0.00,,FEW,0.00,WeatherDisplay:10.37,2013-06-11 14:43:00,
2013-06-11 09:48:00,84.6,78.9,29.13,SE,144,3.9,5.8,83,0.00,,FEW,0.00,WeatherDisplay:10.37,2013-06-11 14:48:00,
2013-06-11 09:53:00,84.7,79.0,29.14,SSW,213,3.6,5.8,83,0.00,,FEW,0.00,WeatherDisplay:10.37,2013-06-11 14:53:00,
2013-06-11 09:58:00,84.8,79.1,29.14,SE,139,4.6,6.9,83,0.00,,FEW,0.00,WeatherDisplay:10.37,2013-06-11 14:58:00,
2013-06-11 10:03:00,85.2,79.4,29.14,SSE,157,2.3,5.8,83,0.00,,FEW,0.00,WeatherDisplay:10.37,2013-06-11 15:03:00,
2013-06-11 10:08:00,85.6,79.5,29.14,West,266,1.9,4.2,82,0.00,,FEW,0.00,WeatherDisplay:10.37,2013-06-11 15:08:00,
2013-06-11 10:13:00,85.5,79.0,29.14,SW,218,4.4,5.8,81,0.00,,FEW,0.00,WeatherDisplay:10.37,2013-06-11 15:13:00,
2013-06-11 10:18:00,85.4,78.9,29.14,SE,144,7.9,9.2,81,0.00,,FEW,0.00,WeatherDisplay:10.37,2013-06-11 15:18:00,
2013-06-11 10:23:00,85.3,79.2,29.14,West,263,3.1,6.9,82,0.00,,FEW,0.00,WeatherDisplay:10.37,2013-06-11 15:23:00,
2013-06-11 10:28:00,85.1,79.0,29.14,SW,223,8.8,12.7,82,0.00,,FEW,0.00,WeatherDisplay:10.37,2013-06-11 15:28:00,
2013-06-11 10:33:00,85.1,79.0,29.14,SE,142,8.2,9.4,82,0.00,,FEW,0.00,WeatherDisplay:10.37,2013-06-11 15:33:00,
2013-06-11 10:38:00,85.6,79.5,29.15,ESE,121,7.3,11.5,82,0.00,,FEW,0.00,WeatherDisplay:10.37,2013-06-11 15:38:00,
2013-06-11 10:43:00,85.9,79.8,29.15,ESE,118,6.2,6.9,82,0.00,,FEW,0.00,WeatherDisplay:10.37,2013-06-11 15:43:00,
2013-06-11 10:48:00,86.2,79.7,29.15,SSE,147,8.7,12.7,81,0.00,,FEW,0.00,WeatherDisplay:10.37,2013-06-11 15:48:00,
2013-06-11 10:53:00,86.0,79.5,29.15,SSE,162,7.3,10.4,81,0.00,,FEW,0.00,WeatherDisplay:10.37,2013-06-11 15:53:00,
2013-06-11 10:58:00,85.7,79.2,29.15,SSE,166,7.2,10.4,81,0.00,,FEW,0.00,WeatherDisplay:10.37,2013-06-11 15:58:00,
2013-06-11 11:03:00,86.3,80.2,29.15,South,173,1.8,9.2,82,0.00,,FEW,0.00,WeatherDisplay:10.37,2013-06-11 16:03:00,
2013-06-11 11:08:00,86.4,79.5,29.15,East,91,5.3,8.1,80,0.00,,FEW,0.00,WeatherDisplay:10.37,2013-06-11 16:08:00,
2013-06-11 11:13:00,86.7,80.2,29.15,SSE,148,4.7,5.8,81,0.00,,FEW,0.00,WeatherDisplay:10.37,2013-06-11 16:13:00,
2013-06-11 11:18:00,86.8,79.5,29.15,SSE,153,9.0,11.5,79,0.00,,FEW,0.00,WeatherDisplay:10.37,2013-06-11 16:18:00,
2013-06-11 11:23:00,86.8,79.9,29.15,SE,138,6.8,9.4,80,0.00,,FEW,0.00,WeatherDisplay:10.37,2013-06-11 16:23:00,
2013-06-11 11:28:00,87.5,80.6,29.15,SE,144,7.1,9.2,80,0.00,,FEW,0.00,WeatherDisplay:10.37,2013-06-11 16:28:00,
2013-06-11 11:33:00,88.1,80.0,29.15,SSE,151,4.3,8.1,77,0.00,,FEW,0.00,WeatherDisplay:10.37,2013-06-11 16:33:00,
2013-06-11 11:38:00,88.2,80.1,29.15,SE,144,8.2,10.4,77,0.00,,FEW,0.00,WeatherDisplay:10.37,2013-06-11 16:38:00,
2013-06-11 11:43:00,88.2,80.1,29.15,SE,138,10.2,14.7,77,0.00,,FEW,0.00,WeatherDisplay:10.37,2013-06-11 16:43:00,
2013-06-11 11:48:00,87.6,79.9,29.15,ESE,109,8.2,11.6,78,0.00,,FEW,0.00,WeatherDisplay:10.37,2013-06-11 16:48:00,
2013-06-11 11:53:00,88.1,80.4,29.15,South,170,6.8,9.2,78,0.00,,FEW,0.00,WeatherDisplay:10.37,2013-06-11 16:53:00,
2013-06-11 11:58:00,87.9,79.8,29.15,SE,143,7.4,9.2,77,0.00,,FEW,0.00,WeatherDisplay:10.37,2013-06-11 16:58:00,
2013-06-11 12:03:00,87.0,80.1,29.15,East,90,3.3,8.1,80,0.00,,FEW,0.00,WeatherDisplay:10.37,2013-06-11 17:03:00,
2013-06-11 12:08:00,86.7,79.4,29.15,SSW,200,6.7,15.0,79,0.00,,FEW,0.00,WeatherDisplay:10.37,2013-06-11 17:08:00,
2013-06-11 12:13:00,86.8,79.5,29.15,SSW,203,5.9,10.4,79,0.00,,FEW,0.00,WeatherDisplay:10.37,2013-06-11 17:13:00,
2013-06-11 12:18:00,86.9,79.6,29.15,South,185,7.6,12.7,79,0.00,,FEW,0.00,WeatherDisplay:10.37,2013-06-11 17:18:00,
2013-06-11 12:23:00,87.0,79.7,29.16,SE,142,6.6,8.4,79,0.00,,FEW,0.00,WeatherDisplay:10.37,2013-06-11 17:23:00,
2013-06-11 12:28:00,86.9,79.6,29.16,SSE,155,6.2,10.4,79,0.00,,FEW,0.00,WeatherDisplay:10.37,2013-06-11 17:28:00,
2013-06-11 12:33:00,88.0,80.3,29.16,East,97,7.7,10.4,78,0.00,,FEW,0.00,WeatherDisplay:10.37,2013-06-11 17:33:00,
2013-06-11 12:38:00,88.5,80.4,29.16,South,175,8.1,12.7,77,0.00,,FEW,0.00,WeatherDisplay:10.37,2013-06-11 17:38:00,
2013-06-11 12:43:00,89.0,80.8,29.15,SE,135,8.5,10.5,77,0.00,,FEW,0.00,WeatherDisplay:10.37,2013-06-11 17:43:00,
2013-06-11 12:48:00,88.0,79.5,29.15,SSW,205,7.9,12.7,76,0.00,,FEW,0.00,WeatherDisplay:10.37,2013-06-11 17:48:00,
2013-06-11 12:53:00,88.7,81.3,29.15,East,97,4.1,9.2,79,0.00,,FEW,0.00,WeatherDisplay:10.37,2013-06-11 17:53:00,
2013-06-11 12:58:00,88.3,79.4,29.15,ESE,104,5.4,11.5,75,0.00,,FEW,0.00,WeatherDisplay:10.37,2013-06-11 17:58:00,
2013-06-11 13:03:00,88.3,79.4,29.15,SSE,151,6.3,9.2,75,0.00,,FEW,0.00,WeatherDisplay:10.37,2013-06-11 18:03:00,
2013-06-11 13:08:00,88.7,78.9,29.15,ESE,122,8.7,12.7,73,0.00,,FEW,0.00,WeatherDisplay:10.37,2013-06-11 18:08:00,
2013-06-11 13:13:00,88.9,79.1,29.15,South,170,6.5,9.2,73,0.00,,FEW,0.00,WeatherDisplay:10.37,2013-06-11 18:13:00,
2013-06-11 13:18:00,88.8,79.0,29.15,SE,130,9.2,13.8,73,0.00,,FEW,0.00,WeatherDisplay:10.37,2013-06-11 18:18:00,
2013-06-11 13:23:00,88.5,80.0,29.15,SE,130,5.0,9.4,76,0.00,,FEW,0.00,WeatherDisplay:10.37,2013-06-11 18:23:00,
2013-06-11 13:28:00,88.4,78.6,29.15,SE,135,7.7,10.4,73,0.00,,FEW,0.00,WeatherDisplay:10.37,2013-06-11 18:28:00,
2013-06-11 13:33:00,88.2,78.0,29.16,SSW,203,9.1,11.5,72,0.00,,FEW,0.00,WeatherDisplay:10.37,2013-06-11 18:33:00,
2013-06-11 13:38:00,87.6,78.7,29.15,SE,132,3.8,9.4,75,0.00,,FEW,0.00,WeatherDisplay:10.37,2013-06-11 18:38:00,
2013-06-11 13:43:00,88.0,79.1,29.16,SSE,166,6.5,6.5,75,0.00,,FEW,0.00,WeatherDisplay:10.37,2013-06-11 18:43:00,
2013-06-11 13:48:00,88.1,78.8,29.15,SSE,162,7.9,12.7,74,0.00,,FEW,0.00,WeatherDisplay:10.37,2013-06-11 18:48:00,
2013-06-11 13:53:00,87.7,78.8,29.15,SE,131,5.6,13.8,75,0.00,,FEW,0.00,WeatherDisplay:10.37,2013-06-11 18:53:00,
2013-06-11 13:58:00,87.9,79.4,29.15,SE,128,8.1,11.5,76,0.00,,FEW,0.00,WeatherDisplay:10.37,2013-06-11 18:58:00,
2013-06-11 14:03:00,87.7,79.6,29.14,SE,137,7.5,13.8,77,0.00,,FEW,0.00,WeatherDisplay:10.37,2013-06-11 19:03:00,
2013-06-11 14:08:00,87.7,79.2,29.14,SSE,154,8.4,9.2,76,0.00,,FEW,0.00,WeatherDisplay:10.37,2013-06-11 19:08:00,
2013-06-11 14:13:00,88.1,80.0,29.14,SE,144,6.0,8.1,77,0.00,,FEW,0.00,WeatherDisplay:10.37,2013-06-11 19:13:00,
2013-06-11 14:18:00,88.4,79.9,29.13,SE,133,7.0,11.5,76,0.00,,FEW,0.00,WeatherDisplay:10.37,2013-06-11 19:18:00,
2013-06-11 14:23:00,88.3,80.2,29.13,ESE,111,9.1,10.4,77,0.00,,FEW,0.00,WeatherDisplay:10.37,2013-06-11 19:23:00,
2013-06-11 14:28:00,88.0,79.5,29.13,ESE,121,9.6,11.5,76,0.00,,FEW,0.00,WeatherDisplay:10.37,2013-06-11 19:28:00,
2013-06-11 14:33:00,87.9,80.2,29.13,SE,133,7.5,13.7,78,0.00,,FEW,0.00,WeatherDisplay:10.37,2013-06-11 19:33:00,
2013-06-11 14:38:00,87.8,80.1,29.13,SSE,163,8.3,12.6,78,0.00,,FEW,0.00,WeatherDisplay:10.37,2013-06-11 19:38:00,
2013-06-11 14:43:00,87.7,80.0,29.12,East,83,6.4,17.3,78,0.00,,FEW,0.00,WeatherDisplay:10.37,2013-06-11 19:43:00,
2013-06-11 14:48:00,87.7,80.0,29.12,East,90,7.1,11.5,78,0.00,,FEW,0.00,WeatherDisplay:10.37,2013-06-11 19:48:00,
2013-06-11 14:53:00,88.2,80.1,29.12,SE,144,7.5,10.4,77,0.00,,FEW,0.00,WeatherDisplay:10.37,2013-06-11 19:53:00,
2013-06-11 14:58:00,87.9,80.2,29.12,South,175,5.3,10.4,78,0.00,,FEW,0.00,WeatherDisplay:10.37,2013-06-11 19:58:00,
2013-06-11 15:03:00,87.8,80.1,29.12,SE,142,8.0,12.6,78,0.00,,FEW,0.00,WeatherDisplay:10.37,2013-06-11 20:03:00,
2013-06-11 15:08:00,87.8,80.5,29.12,South,178,7.9,13.8,79,0.00,,FEW,0.00,WeatherDisplay:10.37,2013-06-11 20:08:00,
2013-06-11 15:13:00,87.8,80.1,29.12,ESE,107,4.6,7.4,78,0.00,,FEW,0.00,WeatherDisplay:10.37,2013-06-11 20:13:00,
2013-06-11 15:18:00,88.0,80.3,29.12,ESE,111,5.2,8.1,78,0.00,,FEW,0.00,WeatherDisplay:10.37,2013-06-11 20:18:00,
2013-06-11 15:23:00,88.4,80.7,29.12,SE,132,3.4,4.6,78,0.00,,FEW,0.00,WeatherDisplay:10.37,2013-06-11 20:23:00,
2013-06-11 15:28:00,88.4,80.3,29.11,SSW,205,7.5,11.5,77,0.00,,FEW,0.00,WeatherDisplay:10.37,2013-06-11 20:28:00,
2013-06-11 15:33:00,88.3,79.4,29.11,SSE,157,8.9,9.4,75,0.00,,FEW,0.00,WeatherDisplay:10.37,2013-06-11 20:33:00,
2013-06-11 15:38:00,88.4,79.1,29.11,SE,144,6.1,10.4,74,0.00,,FEW,0.00,WeatherDisplay:10.37,2013-06-11 20:38:00,
2013-06-11 15:43:00,88.4,78.6,29.12,SE,128,5.5,11.5,73,0.00,,FEW,0.00,WeatherDisplay:10.37,2013-06-11 20:43:00,
2013-06-11 15:48:00,88.4,79.1,29.11,SSE,155,11.2,13.8,74,0.00,,FEW,0.00,WeatherDisplay:10.37,2013-06-11 20:48:00,
2013-06-11 15:53:00,88.0,78.7,29.11,SE,127,9.9,11.5,74,0.00,,FEW,0.00,WeatherDisplay:10.37,2013-06-11 20:53:00,
2013-06-11 15:58:00,87.9,78.2,29.11,SSE,147,10.4,12.7,73,0.00,,FEW,0.00,WeatherDisplay:10.37,2013-06-11 20:58:00,
2013-06-11 16:03:00,87.8,78.9,29.11,South,171,3.6,5.8,75,0.00,,FEW,0.00,WeatherDisplay:10.37,2013-06-11 21:03:00,
2013-06-11 16:08:00,87.7,78.0,29.11,ESE,123,4.4,6.9,73,0.00,,FEW,0.00,WeatherDisplay:10.37,2013-06-11 21:08:00,
2013-06-11 16:13:00,87.8,78.5,29.11,SE,134,4.6,9.2,74,0.00,,FEW,0.00,WeatherDisplay:10.37,2013-06-11 21:13:00,
2013-06-11 16:18:00,87.8,78.9,29.11,ESE,122,8.6,12.7,75,0.00,,FEW,0.00,WeatherDisplay:10.37,2013-06-11 21:18:00,
2013-06-11 16:23:00,87.2,78.3,29.11,SSE,163,8.9,10.4,75,0.00,,FEW,0.00,WeatherDisplay:10.37,2013-06-11 21:23:00,
2013-06-11 16:28:00,87.2,78.7,29.11,SSE,158,7.0,9.2,76,0.00,,FEW,0.00,WeatherDisplay:10.37,2013-06-11 21:28:00,
2013-06-11 16:33:00,87.3,78.4,29.11,SW,217,7.2,10.4,75,0.00,,FEW,0.00,WeatherDisplay:10.37,2013-06-11 21:33:00,
2013-06-11 16:38:00,87.4,79.3,29.10,SE,133,5.5,9.2,77,0.00,,FEW,0.00,WeatherDisplay:10.37,2013-06-11 21:38:00,
2013-06-11 16:43:00,87.6,79.1,29.11,ESE,121,5.3,16.1,76,0.00,,FEW,0.00,WeatherDisplay:10.37,2013-06-11 21:43:00,
2013-06-11 16:48:00,87.5,79.0,29.10,ESE,118,4.5,6.9,76,0.00,,FEW,0.00,WeatherDisplay:10.37,2013-06-11 21:48:00,
2013-06-11 16:53:00,87.5,79.0,29.10,ENE,61,14.7,14.7,76,0.00,,FEW,0.00,WeatherDisplay:10.37,2013-06-11 21:53:00,
2013-06-11 16:58:00,87.2,79.1,29.10,SSE,168,5.4,8.4,77,0.00,,FEW,0.00,WeatherDisplay:10.37,2013-06-11 21:58:00,
2013-06-11 17:03:00,87.1,79.0,29.10,SE,128,6.6,15.0,77,0.00,,FEW,0.00,WeatherDisplay:10.37,2013-06-11 22:03:00,
2013-06-11 17:08:00,87.2,79.1,29.10,South,175,2.4,11.5,77,0.00,,FEW,0.00,WeatherDisplay:10.37,2013-06-11 22:08:00,
2013-06-11 17:13:00,87.3,78.8,29.10,SSE,162,4.4,8.4,76,0.00,,FEW,0.00,WeatherDisplay:10.37,2013-06-11 22:13:00,
2013-06-11 17:18:00,86.8,78.7,29.10,SE,143,4.7,6.9,77,0.00,,FEW,0.00,WeatherDisplay:10.37,2013-06-11 22:18:00,
2013-06-11 17:23:00,86.6,78.5,29.10,ESE,111,5.2,11.5,77,0.00,,FEW,0.00,WeatherDisplay:10.37,2013-06-11 22:23:00,
2013-06-11 17:28:00,86.6,78.5,29.10,ESE,116,3.4,9.2,77,0.00,,FEW,0.00,WeatherDisplay:10.37,2013-06-11 22:28:00,
2013-06-11 17:33:00,87.3,79.2,29.10,East,98,4.4,5.8,77,0.00,,FEW,0.00,WeatherDisplay:10.37,2013-06-11 22:33:00,
2013-06-11 17:38:00,87.2,79.1,29.10,ESE,112,4.5,6.3,77,0.00,,FEW,0.00,WeatherDisplay:10.37,2013-06-11 22:38:00,
2013-06-11 17:43:00,86.7,78.6,29.10,ESE,115,3.7,8.1,77,0.00,,FEW,0.00,WeatherDisplay:10.37,2013-06-11 22:43:00,
2013-06-11 17:48:00,86.1,78.0,29.10,SE,144,4.6,9.2,77,0.00,,FEW,0.00,WeatherDisplay:10.37,2013-06-11 22:48:00,
2013-06-11 17:53:00,86.3,79.0,29.10,SE,140,7.6,8.1,79,0.00,,FEW,0.00,WeatherDisplay:10.37,2013-06-11 22:53:00,
2013-06-11 17:58:00,86.5,79.2,29.10,SSE,166,3.6,9.2,79,0.00,,FEW,0.00,WeatherDisplay:10.37,2013-06-11 22:58:00,
2013-06-11 18:03:00,86.8,79.1,29.10,ESE,121,3.8,6.9,78,0.00,,FEW,0.00,WeatherDisplay:10.37,2013-06-11 23:03:00,
2013-06-11 18:08:00,86.5,77.6,29.10,ESE,117,6.5,11.5,75,0.00,,FEW,0.00,WeatherDisplay:10.37,2013-06-11 23:08:00,
2013-06-11 18:13:00,86.4,78.3,29.10,South,175,6.2,8.1,77,0.00,,FEW,0.00,WeatherDisplay:10.37,2013-06-11 23:13:00,
2013-06-11 18:18:00,86.7,79.4,29.10,ESE,104,1.1,5.2,79,0.00,,FEW,0.00,WeatherDisplay:10.37,2013-06-11 23:18:00,
2013-06-11 18:23:00,87.1,79.4,29.10,East,88,4.0,4.0,78,0.00,,FEW,0.00,WeatherDisplay:10.37,2013-06-11 23:23:00,
2013-06-11 18:28:00,86.7,79.0,29.09,East,99,4.2,8.1,78,0.00,,FEW,0.00,WeatherDisplay:10.37,2013-06-11 23:28:00,
2013-06-11 18:33:00,86.1,78.8,29.09,SE,126,4.1,8.1,79,0.00,,FEW,0.00,WeatherDisplay:10.37,2013-06-11 23:33:00,
2013-06-11 18:38:00,85.9,79.0,29.09,ESE,115,4.2,12.7,80,0.00,,FEW,0.00,WeatherDisplay:10.37,2013-06-11 23:38:00,
2013-06-11 18:43:00,85.4,78.5,29.09,South,175,6.1,10.4,80,0.00,,FEW,0.00,WeatherDisplay:10.37,2013-06-11 23:43:00,
2013-06-11 18:48:00,85.0,78.1,29.09,ESE,121,5.9,17.3,80,0.00,,FEW,0.00,WeatherDisplay:10.37,2013-06-11 23:48:00,
2013-06-11 18:53:00,84.8,78.3,29.09,SSE,148,5.0,12.7,81,0.00,,FEW,0.00,WeatherDisplay:10.37,2013-06-11 23:53:00,
2013-06-11 18:58:00,84.5,78.0,29.09,SSE,148,4.9,5.8,81,0.00,,FEW,0.00,WeatherDisplay:10.37,2013-06-11 23:58:00,
2013-06-11 19:03:00,84.4,78.3,29.09,ESE,109,5.1,7.4,82,0.00,,FEW,0.00,WeatherDisplay:10.37,2013-06-12 00:03:00,
2013-06-11 19:08:00,84.5,78.4,29.09,SSE,154,4.1,8.1,82,0.00,,FEW,0.00,WeatherDisplay:10.37,2013-06-12 00:08:00,
2013-06-11 19:13:00,84.5,78.4,29.09,ESE,120,5.7,5.8,82,0.00,,FEW,0.00,WeatherDisplay:10.37,2013-06-12 00:13:00,
2013-06-11 19:18:00,84.4,77.9,29.09,SE,128,4.7,6.9,81,0.00,,FEW,0.00,WeatherDisplay:10.37,2013-06-12 00:18:00,
2013-06-11 19:23:00,84.5,78.4,29.09,SE,144,4.2,8.1,82,0.00,,FEW,0.00,WeatherDisplay:10.37,2013-06-12 00:23:00,
2013-06-11 19:28:00,84.5,78.4,29.09,ESE,118,3.4,5.8,82,0.00,,FEW,0.00,WeatherDisplay:10.37,2013-06-12 00:28:00,
2013-06-11 19:33:00,84.3,78.2,29.09,SE,133,6.1,9.2,82,0.00,,FEW,0.00,WeatherDisplay:10.37,2013-06-12 00:33:00,
2013-06-11 19:38:00,84.3,78.6,29.09,SE,126,4.5,5.8,83,0.00,,FEW,0.00,WeatherDisplay:10.37,2013-06-12 00:38:00,
2013-06-11 19:43:00,84.2,78.5,29.09,SE,124,8.5,9.2,83,0.00,,FEW,0.00,WeatherDisplay:10.37,2013-06-12 00:43:00,
2013-06-11 19:48:00,84.1,78.7,29.09,ESE,112,3.9,5.8,84,0.00,,FEW,0.00,WeatherDisplay:10.37,2013-06-12 00:48:00,
2013-06-11 19:53:00,83.9,78.5,29.10,East,98,2.2,11.5,84,0.00,,FEW,0.00,WeatherDisplay:10.37,2013-06-12 00:53:00,
2013-06-11 19:58:00,83.7,78.3,29.10,ESE,123,3.4,6.9,84,0.00,,FEW,0.00,WeatherDisplay:10.37,2013-06-12 00:58:00,
2013-06-11 20:03:00,83.5,78.2,29.10,SE,126,4.5,9.2,84,0.00,,FEW,0.00,WeatherDisplay:10.37,2013-06-12 01:03:00,
2013-06-11 20:08:00,83.4,78.1,29.10,ESE,102,4.1,5.8,84,0.00,,FEW,0.00,WeatherDisplay:10.37,2013-06-12 01:08:00,
2013-06-11 20:13:00,83.3,78.3,29.10,SSE,152,2.9,5.8,85,0.00,,FEW,0.00,WeatherDisplay:10.37,2013-06-12 01:13:00,
2013-06-11 20:18:00,83.2,78.2,29.10,ESE,116,1.1,6.9,85,0.00,,FEW,0.00,WeatherDisplay:10.37,2013-06-12 01:18:00,
2013-06-11 20:23:00,83.1,78.1,29.10,SE,141,2.1,5.8,85,0.00,,FEW,0.00,WeatherDisplay:10.37,2013-06-12 01:23:00,
2013-06-11 20:28:00,83.0,78.0,29.10,ESE,119,2.8,8.1,85,0.00,,FEW,0.00,WeatherDisplay:10.37,2013-06-12 01:28:00,
2013-06-11 20:33:00,83.0,78.4,29.09,East,101,5.0,8.1,86,0.00,,FEW,0.00,WeatherDisplay:10.37,2013-06-12 01:33:00,
2013-06-11 20:38:00,83.0,78.4,29.10,ESE,113,5.7,5.8,86,0.00,,FEW,0.00,WeatherDisplay:10.37,2013-06-12 01:38:00,
2013-06-11 20:43:00,82.9,77.9,29.09,ESE,123,1.9,6.9,85,0.00,,FEW,0.00,WeatherDisplay:10.37,2013-06-12 01:43:00,
2013-06-11 20:48:00,82.9,77.9,29.09,ESE,102,5.5,8.1,85,0.00,,FEW,0.00,WeatherDisplay:10.37,2013-06-12 01:48:00,
2013-06-11 20:53:00,82.9,77.9,29.09,ESE,112,1.7,9.2,85,0.00,,FEW,0.00,WeatherDisplay:10.37,2013-06-12 01:53:00,
2013-06-11 20:58:00,82.8,77.8,29.09,ESE,121,5.5,8.1,85,0.00,,FEW,0.00,WeatherDisplay:10.37,2013-06-12 01:58:00,
2013-06-11 21:03:00,82.8,77.8,29.09,SSE,168,3.3,4.6,85,0.00,,FEW,0.00,WeatherDisplay:10.37,2013-06-12 02:03:00,
2013-06-11 21:08:00,82.9,77.9,29.09,ESE,107,2.5,8.1,85,0.00,,FEW,0.00,WeatherDisplay:10.37,2013-06-12 02:08:00,
2013-06-11 21:13:00,82.9,77.9,29.09,ESE,102,4.3,5.8,85,0.00,,FEW,0.00,WeatherDisplay:10.37,2013-06-12 02:13:00,
2013-06-11 21:18:00,82.9,77.9,29.09,SE,133,1.8,8.1,85,0.00,,FEW,0.00,WeatherDisplay:10.37,2013-06-12 02:18:00,
2013-06-11 21:23:00,82.9,77.9,29.09,SSE,149,1.8,5.8,85,0.00,,FEW,0.00,WeatherDisplay:10.37,2013-06-12 02:23:00,
2013-06-11 21:28:00,83.0,78.4,29.09,SSE,147,7.0,7.0,86,0.00,,FEW,0.00,WeatherDisplay:10.37,2013-06-12 02:28:00,
2013-06-11 21:33:00,83.0,78.4,29.09,SSE,154,5.6,10.4,86,0.00,,FEW,0.00,WeatherDisplay:10.37,2013-06-12 02:33:00,
2013-06-11 21:38:00,83.0,78.4,29.09,SE,130,6.3,6.3,86,0.00,,FEW,0.00,WeatherDisplay:10.37,2013-06-12 02:38:00,
2013-06-11 21:43:00,82.9,77.9,29.10,SE,137,1.7,8.1,85,0.00,,FEW,0.00,WeatherDisplay:10.37,2013-06-12 02:43:00,
2013-06-11 21:48:00,82.9,77.9,29.10,East,95,5.4,6.9,85,0.00,,FEW,0.00,WeatherDisplay:10.37,2013-06-12 02:48:00,
2013-06-11 21:53:00,82.9,77.9,29.10,ESE,114,5.1,6.9,85,0.00,,FEW,0.00,WeatherDisplay:10.37,2013-06-12 02:53:00,
2013-06-11 21:58:00,82.9,77.9,29.10,SE,130,3.5,5.8,85,0.00,,FEW,0.00,WeatherDisplay:10.37,2013-06-12 02:58:00,
2013-06-11 22:03:00,82.9,77.9,29.10,ESE,115,0.9,7.4,85,0.00,,FEW,0.00,WeatherDisplay:10.37,2013-06-12 03:03:00,
2013-06-11 22:08:00,82.9,78.3,29.10,ESE,123,4.2,6.3,86,0.00,,FEW,0.00,WeatherDisplay:10.37,2013-06-12 03:08:00,
2013-06-11 22:13:00,82.9,78.6,29.10,ESE,109,2.5,5.8,87,0.00,,FEW,0.00,WeatherDisplay:10.37,2013-06-12 03:13:00,
2013-06-11 22:18:00,82.9,78.6,29.10,ESE,111,3.3,5.8,87,0.00,,FEW,0.00,WeatherDisplay:10.37,2013-06-12 03:18:00,
2013-06-11 22:23:00,82.8,78.5,29.11,SE,135,4.7,9.2,87,0.00,,FEW,0.00,WeatherDisplay:10.37,2013-06-12 03:23:00,
2013-06-11 22:28:00,82.7,78.4,29.11,SE,144,5.1,8.1,87,0.00,,FEW,0.00,WeatherDisplay:10.37,2013-06-12 03:28:00,
2013-06-11 22:33:00,82.6,78.3,29.11,ESE,116,3.2,5.8,87,0.00,,FEW,0.00,WeatherDisplay:10.37,2013-06-12 03:33:00,
2013-06-11 22:38:00,82.6,78.3,29.11,South,187,1.0,4.6,87,0.00,,FEW,0.00,WeatherDisplay:10.37,2013-06-12 03:38:00,
2013-06-11 22:43:00,82.5,78.2,29.11,South,169,4.9,9.2,87,0.00,,FEW,0.00,WeatherDisplay:10.37,2013-06-12 03:43:00,
2013-06-11 22:49:00,82.5,78.2,29.11,ESE,109,6.8,8.1,87,0.00,,FEW,0.00,WeatherDisplay:10.37,2013-06-12 03:49:00,
2013-06-11 22:54:00,82.5,78.2,29.12,East,92,3.0,5.8,87,0.00,,FEW,0.00,WeatherDisplay:10.37,2013-06-12 03:54:00,
2013-06-11 22:59:00,82.4,78.1,29.12,ESE,116,2.4,6.9,87,0.00,,FEW,0.00,WeatherDisplay:10.37,2013-06-12 03:59:00,
2013-06-11 23:01:00,82.4,78.1,29.12,SSE,153,2.9,5.8,87,0.00,,FEW,0.00,WeatherDisplay:10.37,2013-06-12 04:01:00,
2013-06-11 23:06:00,82.4,78.1,29.12,SE,135,3.4,5.8,87,0.00,,FEW,0.00,WeatherDisplay:10.37,2013-06-12 04:06:00,
2013-06-11 23:11:00,82.3,78.0,29.12,SE,125,2.6,4.6,87,0.00,,FEW,0.00,WeatherDisplay:10.37,2013-06-12 04:11:00,
2013-06-11 23:16:00,82.2,77.9,29.12,SSE,155,1.6,4.6,87,0.00,,FEW,0.00,WeatherDisplay:10.37,2013-06-12 04:16:00,
2013-06-11 23:21:00,82.2,77.9,29.12,ESE,122,5.5,8.1,87,0.00,,FEW,0.00,WeatherDisplay:10.37,2013-06-12 04:21:00,
2013-06-11 23:26:00,82.2,77.9,29.12,ESE,118,5.1,9.2,87,0.00,,FEW,0.00,WeatherDisplay:10.37,2013-06-12 04:26:00,
2013-06-11 23:31:00,82.3,78.4,29.12,SE,132,3.9,6.9,88,0.00,,FEW,0.00,WeatherDisplay:10.37,2013-06-12 04:31:00,
2013-06-11 23:36:00,82.3,78.4,29.12,ESE,116,3.4,8.4,88,0.00,,FEW,0.00,WeatherDisplay:10.37,2013-06-12 04:36:00,
2013-06-11 23:41:00,82.2,78.3,29.12,ESE,122,2.5,4.6,88,0.00,,FEW,0.00,WeatherDisplay:10.37,2013-06-12 04:41:00,
2013-06-11 23:46:00,82.2,78.3,29.12,ESE,119,3.8,6.9,88,0.00,,FEW,0.00,WeatherDisplay:10.37,2013-06-12 04:46:00,
2013-06-11 23:51:00,82.3,78.4,29.13,ESE,118,4.9,6.9,88,0.00,,FEW,0.00,WeatherDisplay:10.37,2013-06-12 04:51:00,
2013-06-11 23:56:00,82.3,78.4,29.13,ESE,109,3.2,12.7,88,0.00,,FEW,0.00,WeatherDisplay:10.37,2013-06-12 04:56:00,